Weather History for Brookhaven, MS

Change the Weather History Date:

Tuesday, May 8, 2012

  Actual Average (KMCB) Record (KMCB)
Temperature  
Mean Temperature 76 °F -  
Max Temperature 86 °F 81 °F 91 °F (1963)
Min Temperature 66 °F 59 °F 44 °F (1992)
Cooling Degree Days 11    
Growing Degree Days 26 (Base 50)    
Moisture  
Dew Point 66 °F    
Average Humidity 72    
Maximum Humidity 100    
Minimum Humidity 45    
Precipitation  
Precipitation 0.47 in - - ()
Sea Level Pressure  
Sea Level Pressure 29.91 in    
Wind  
Wind Speed 3 mph (NE)    
Max Wind Speed 18 mph    
Max Gust Speed 31 mph    
Visibility 9 miles    
Events Rain , Thunderstorm    
Averages and records for this station are not official NWS values.
T = Trace of Precipitation, MM = Missing Value Source: NWS Daily Summary

Daily Weather History Graph

Daily Weather History Graph

Search for Another Location

Airport:

Trip Planner

Search our weather history database for the weather conditions in past years. The results will help you decide how hot, cold, wet, or windy it might be!

Date:

Astronomy

May. 08, 2012 Rise Set
Actual Time 6:09 AM CDT 7:46 PM CDT
Civil Twilight 5:43 AM CDT 8:13 PM CDT
Nautical Twilight 5:11 AM CDT 8:44 PM CDT
Astronomical Twilight 4:38 AM CDT 9:18 PM CDT
Moon 10:52 PM CDT (5/8) 8:23 AM CDT (5/8)
Length of Visible Light 14h 29m
Length of Day
13h 36m
Waning Gibbous, 90% of the Moon is Illuminated
May 8
Waning Gibbous
May 12
Last Quarter
May 20
New
May 28
First Quarter
Jun 4
Full

Hourly Weather History & Observations

Time (CDT) Temp. Heat Index Dew Point Humidity Pressure Visibility Wind Dir Wind Speed Gust Speed Precip Events Conditions
9:35 AM - - - N/A% 29.93 in - Calm Calm - N/A   Unknown
9:55 AM 75.2 °F - 68.0 °F 78% 29.94 in 9.0 mi Calm Calm - N/A   Clear
10:15 AM 77.0 °F - 68.0 °F 74% 29.94 in 10.0 mi Calm Calm - N/A   Clear
10:35 AM 78.8 °F - 66.2 °F 65% 29.94 in 9.0 mi East 4.6 mph - N/A   Clear
10:55 AM 80.6 °F 83.2 °F 68.0 °F 65% 29.94 in 10.0 mi East 3.5 mph - N/A   Clear
11:15 AM 80.6 °F 83.2 °F 68.0 °F 65% 29.94 in 10.0 mi Calm Calm - N/A   Clear
11:35 AM 80.6 °F 83.2 °F 68.0 °F 65% 29.93 in 10.0 mi East 4.6 mph - N/A   Clear
11:55 AM 82.4 °F 85.4 °F 68.0 °F 62% 29.94 in 10.0 mi North 5.8 mph - N/A   Clear
12:15 PM 82.4 °F 84.6 °F 66.2 °F 58% 29.94 in 10.0 mi North 6.9 mph - N/A   Clear
12:35 PM 82.4 °F 84.6 °F 66.2 °F 58% 29.93 in 10.0 mi North 5.8 mph - N/A   Clear
12:55 PM 82.4 °F 84.6 °F 66.2 °F 58% 29.93 in 10.0 mi ENE 5.8 mph - N/A   Partly Cloudy
1:15 PM 84.2 °F 86.6 °F 66.2 °F 55% 29.92 in 9.0 mi SE 5.8 mph - N/A   Partly Cloudy
1:35 PM 84.2 °F 85.6 °F 64.4 °F 51% 29.92 in 10.0 mi East 4.6 mph - N/A   Clear
1:55 PM 84.2 °F 85.6 °F 64.4 °F 51% 29.91 in 10.0 mi SE 4.6 mph - N/A   Partly Cloudy
2:15 PM 84.2 °F 85.6 °F 64.4 °F 51% 29.91 in 10.0 mi Calm Calm - N/A   Clear
2:35 PM 86.0 °F 88.2 °F 66.2 °F 51% 29.90 in 10.0 mi East 4.6 mph - N/A   Clear
2:55 PM 84.2 °F 85.6 °F 64.4 °F 51% 29.89 in 10.0 mi Calm Calm - N/A   Partly Cloudy
3:15 PM 84.2 °F 85.6 °F 64.4 °F 51% 29.88 in 6.0 mi SE 4.6 mph - N/A   Haze
3:35 PM 86.0 °F 86.6 °F 62.6 °F 45% 29.87 in 10.0 mi ESE 3.5 mph - N/A   Partly Cloudy
3:55 PM 84.2 °F 85.6 °F 64.4 °F 51% 29.86 in 10.0 mi SE 3.5 mph - N/A   Clear
4:15 PM 86.0 °F 87.3 °F 64.4 °F 48% 29.86 in 10.0 mi South 3.5 mph - N/A   Partly Cloudy
4:35 PM 84.2 °F 86.6 °F 66.2 °F 55% 29.86 in 10.0 mi SSW 5.8 mph - N/A   Partly Cloudy
4:55 PM 84.2 °F 85.6 °F 64.4 °F 51% 29.86 in 10.0 mi Calm Calm - N/A   Clear
5:15 PM 84.2 °F 86.6 °F 66.2 °F 55% 29.85 in 10.0 mi Calm Calm - N/A   Clear
5:35 PM 82.4 °F 84.6 °F 66.2 °F 58% 29.85 in 9.0 mi Calm Calm - N/A   Clear
5:55 PM 82.4 °F 84.6 °F 66.2 °F 58% 29.85 in 10.0 mi Calm Calm - N/A Thunderstorm Clear
6:15 PM 75.2 °F - 66.2 °F 73% 29.89 in 9.0 mi WSW 17.3 mph 31.1 mph N/A Thunderstorm Mostly Cloudy
6:35 PM 69.8 °F - 66.2 °F 88% 29.91 in 0.5 mi WSW 18.4 mph 27.6 mph 0.23 in Rain , Thunderstorm Thunderstorms and Rain
6:55 PM 68.0 °F - 64.4 °F 88% 29.89 in 1.5 mi NNW 8.1 mph - 0.45 in Rain , Thunderstorm Light Thunderstorms and Rain
7:15 PM 68.0 °F - 66.2 °F 94% 29.86 in 3.0 mi Calm Calm - 0.01 in Rain Rain
7:35 PM 66.2 °F - 66.2 °F 100% 29.86 in 5.0 mi Calm Calm - 0.02 in Thunderstorm Partly Cloudy
7:55 PM 66.2 °F - 66.2 °F 100% 29.88 in 7.0 mi NNE 8.1 mph - 0.02 in   Clear
8:15 PM 66.2 °F - 66.2 °F 100% 29.89 in 10.0 mi Calm Calm - N/A   Scattered Clouds
8:35 PM 68.0 °F - 66.2 °F 94% 29.90 in 10.0 mi Calm Calm - N/A   Scattered Clouds
8:55 PM 68.0 °F - 66.2 °F 94% 29.90 in 10.0 mi Calm Calm - N/A   Mostly Cloudy
9:15 PM 68.0 °F - 66.2 °F 94% 29.90 in 10.0 mi Calm Calm - N/A   Partly Cloudy
9:35 PM 66.2 °F - 66.2 °F 100% 29.92 in 6.0 mi Calm Calm - N/A   Clear
9:55 PM 68.0 °F - 66.2 °F 94% 29.93 in 8.0 mi Calm Calm - N/A   Scattered Clouds
10:15 PM 68.0 °F - 66.2 °F 94% 29.95 in 10.0 mi NW 5.8 mph - N/A   Scattered Clouds
10:35 PM 68.0 °F - 66.2 °F 94% 29.94 in 10.0 mi North 6.9 mph - N/A   Drizzle
10:55 PM 68.0 °F - 66.2 °F 94% 29.95 in 10.0 mi WNW 3.5 mph - N/A   Partly Cloudy
11:15 PM 68.0 °F - 66.2 °F 94% 29.94 in 8.0 mi Calm Calm - N/A   Mostly Cloudy
11:35 PM 68.0 °F - 66.2 °F 94% 29.94 in 10.0 mi North 6.9 mph - N/A   Overcast
11:55 PM 68.0 °F - 66.2 °F 94% 29.94 in 8.0 mi NNE 5.8 mph - N/A   Mostly Cloudy